AirNav   Everest Fuels
 
 274 users online  

PN78 600 Grant Street Rooftop Heliport
Pittsburgh, Pennsylvania, USA

GOING TO PITTSBURGH?


FAA INFORMATION EFFECTIVE 18 JUNE 2020

Location

FAA Identifier: PN78
Lat/Long: 40-26-31.2480N 079-59-43.1910W
40-26.520800N 079-59.719850W
40.4420133,-79.9953308
(estimated)
Elevation: 1604 ft. / 489 m (estimated)
Variation: 08W (1985)
Time zone: UTC -4 (UTC -5 during Standard Time)
Zip code: 15219

Heliport Operations

Heliport use: Private use. Permission required prior to landing
Activation date: 10/1969
Control tower: no
ARTCC: CLEVELAND CENTER
FSS: ALTOONA FLIGHT SERVICE STATION
Attendance: IREG
Wind indicator: yes
Segmented circle: no

Heliport Communications

WX AWOS-A at 42PN (0.9 nm NW): PHONE 412-442-2213
WX ASOS at AGC (6 nm SE): 120.55 (412-466-8968)
WX ASOS at PIT (11 nm W): PHONE 412-472-0145
WX AWOS-3 at FWQ (16 nm SE): 118.475 (724-379-5815)

Nearby radio navigation aids

VOR radial/distance  VOR name  Freq  Var
AGCr021/10.0ALLEGHENY VOR/DME110.0009W
EWCr165/25.0ELLWOOD CITY VOR/DME115.8008W
HLGr074/28.4WHEELING VOR/DME112.2007W

 
NDB name  Hdg/Dist  Freq  Var  ID
CASTLE160/39.827209WUCP ..- -.-. .--.

Heliport Services

Airframe service: NONE
Powerplant service: NONE

Runway Information

Helipad H1

Dimensions: 50 x 50 ft. / 15 x 15 m
LANDING AREA IS A TRIANGULAR AREA APPROX. 180' ON A SIDE.
Surface: concrete, in fair condition
Latitude: 40-26.520800N
Longitude: 079-59.719850W
Elevation: 1604.0 ft.
Traffic pattern: leftleft
Markings: none, in fair condition

Heliport Ownership and Management from official FAA records

Ownership: Privately-owned
Owner: 600 GRANT STREET ASSOCIATES
600 GRANT ST STE 4900
PITTSBURGH, PA 15230
C/O GALBREATH COMPANY
Manager: EDWARD L GAMBONE
15 ALLEGHENY COUNTY AIRPORT
WEST MIFFLIN, PA 15122-2669
Phone 412-466-2500
EXT 310.

Additional Remarks

FOR CD CTC PITTSBURGH APCH AT 412-472-5591

Instrument Procedures

There are no published instrument procedures at PN78.

Some nearby airports with instrument procedures:

KAGC - Allegheny County Airport (6 nm SE)
KPIT - Pittsburgh International Airport (11 nm W)
G05 - Finleyville Airpark (12 nm S)
KFWQ - Rostraver Airport (16 nm SE)
KBTP - Pittsburgh/Butler Regional Airport (20 nm N)
 
Loc | Ops | Rwys | IFR | FBO | Links
Com | Nav | Svcs | Stats | Notes
Area around PN78 (600 Grant Street Rooftop Heliport)
 
Road maps at: MapQuest Bing Google
 
Aerial photo
No photo
 
Sectional chart

 
Airport distance calculator
Flying to 600 Grant Street Rooftop Heliport? Find the distance to fly.

From to PN78

Sunrise and sunset
Times for 09-Jul-2020
 Local
(UTC-4)
 Zulu
(UTC)
Morning civil twilight05:2709:27
Sunrise06:0010:00
Sunset20:5100:51
Evening civil twilight21:2301:23

Current date and time
Zulu (UTC)  09-Jul-2020 07:54:39
Local (UTC-4)  09-Jul-2020 03:54:39
 
METAR
KAGC 
7nm SE 
090653Z 17006KT 10SM CLR 23/19 A2993 RMK AO2 SLP127 T02330194
KPIT 
13nm W 
090651Z 00000KT 10SM FEW150 23/20 A2993 RMK AO2 SLP130 T02330200
KP53 
16nm SE 
090656Z AUTO 00000KT 23/18 A2984 RMK AO1 SLP102 T02280183
KBTP 
20nm N 
090656Z AUTO 00000KT 10SM CLR 22/19 A2995 RMK AO2 SLP135 T02170194
TAF
KAGC 
7nm SE 
090520Z 0906/1006 16003KT P6SM SKC FM091400 14004KT P6SM SCT060 FM092000 16005KT P6SM VCTS SCT050CB FM100000 12003KT P6SM SCT070
KPIT 
13nm W 
090520Z 0906/1012 00000KT P6SM SKC FM091400 14004KT P6SM SCT060 FM092000 16005KT P6SM VCTS SCT050CB FM100000 12003KT P6SM SCT070
NOTAMs
Click for the latest NOTAMs
NOTAMs are issued by the DoD/FAA and will open in a separate window not controlled by AirNav.

 

 
 

Would you like to see your business listed on this page?

 If your business provides an interesting product or service to pilots, flight crews, aircraft, or users of the 600 Grant Street Rooftop Heliport, you should consider listing it here.  To start the listing process, click on the button below
 
Add a business
 

Other Pages about 600 Grant Street Rooftop Heliport

Update a link
 
Copyright © AirNav, LLC. All rights reserved. Privacy Policy  Contact